Tracking 18987 objects as of 25-Feb-2018
HD Live streaming from Space Station
objects crossing your sky now

BREEZE-M DEB (TANK)

Track BREEZE-M DEB (TANK) now!
10-day predictions


NORAD ID: 35875
Int'l Code: 2009-050C
Perigee: 304.6 km
Apogee: 20,487.6 km
Inclination: 49.3 °
Period: 360.1 minutes
Semi major axis: 16767 km
RCS: 6.4522 m2 (large)
Launch date: September 17, 2009
Source: Commonwealth of Independent States (former USSR) (CIS)
Launch site: TYURATAM MISSILE AND SPACE COMPLEX (TTMTR)

Note: This is SATELLITE DEBRIS
aabbcc
Your satellite tracking list
Your tracking list is empty




NASA's NSSDC Master Catalog

Two Line Element Set (TLE):
1 35875U 09050C   18052.24205104  .00001904  00000-0  50011-3 0  9990
2 35875  49.2851 102.8894 6018642 322.1777   7.9762  3.99868041121426
Source of the keplerian elements: AFSPC